HI8EES-1 Weather Reports


Display with metric or nautical units.
time (UTC)temp
F
wind
direction
speed
MPH
gust
MPH
rain 1hr
in
rain 24hr
in
rain mn
in
humidity
%
barometer
mb
20260503054514 73 0 0.0 0.0 0.00 0.00 0.00 88 1016.0
20260503053512 74 0 0.0 0.0 0.00 0.00 0.00 88 1016.0
20260503052511 75 0 0.0 0.0 0.00 0.00 0.00 88 1017.0
20260503051509 76 0 0.0 0.0 0.00 0.00 0.00 88 1016.0
20260503050507 73 150 10.0 0.0 0.00 0.00 0.00 88 1016.0
20260503045505 74 150 10.0 0.0 0.00 0.00 0.00 88 1016.0
20260503044504 75 150 10.0 0.0 0.00 0.00 0.00 88 1016.0
20260503043503 76 150 10.0 0.0 0.00 0.00 0.00 88 1016.0
20260503042501 73 150 10.0 0.0 0.00 0.00 0.00 83 1017.0
20260503041500 74 150 10.0 0.0 0.00 0.00 0.00 83 1017.0
20260503040459 75 150 10.0 0.0 0.00 0.00 0.00 83 1017.0
20260503035458 76 150 5.0 0.0 0.00 0.00 0.00 83 1017.0
20260503034456 77 150 5.0 0.0 0.00 0.00 0.00 83 1017.0
20260503033455 78 150 5.0 0.0 0.00 0.00 0.00 83 1017.0
20260503032453 73 150 5.0 0.0 0.00 0.00 0.00 83 1017.0
20260503031452 74 150 5.0 0.0 0.00 0.00 0.00 83 1017.0
20260503030450 75 150 5.0 0.0 0.00 0.00 0.00 83 1017.0
20260503025448 76 60 4.0 0.0 0.00 0.00 0.00 83 1017.0
20260503024446 77 60 4.0 0.0 0.00 0.00 0.00 83 1017.0
20260503023445 78 60 4.0 0.0 0.00 0.00 0.00 83 1017.0
20260503022444 73 70 8.0 0.0 0.00 0.00 0.00 83 1017.0
20260503021442 74 70 8.0 0.0 0.00 0.00 0.00 83 1016.0
20260503020441 75 70 9.0 0.0 0.00 0.00 0.00 83 1016.0
20260503015439 76 70 9.0 0.0 0.00 0.00 0.00 83 1016.0
20260503014438 77 70 9.0 0.0 0.00 0.00 0.00 83 1016.0
20260503013437 78 70 9.0 0.0 0.00 0.00 0.00 83 1016.0
20260503012435 72 70 9.0 0.0 0.00 0.00 0.00 83 1016.0
20260503011433 73 70 9.0 0.0 0.00 0.00 0.00 83 1016.0
20260503010431 74 100 8.0 0.0 0.00 0.00 0.00 83 1016.0
20260503005430 75 100 8.0 0.0 0.00 0.00 0.00 83 1016.0
20260503004429 76 100 8.0 0.0 0.00 0.00 0.00 83 1016.0
20260503003427 77 100 8.0 0.0 0.00 0.00 0.00 83 1016.0
20260503002426 78 100 8.0 0.0 0.00 0.00 0.00 83 1015.0
20260503001425 79 100 8.0 0.0 0.00 0.00 0.00 83 1015.0
20260503000415 80 100 9.0 0.0 0.00 0.00 0.00 83 1015.0
20260502235410 73 100 9.0 0.0 0.00 0.00 0.00 69 1015.0
20260502234409 74 100 9.0 0.0 0.00 0.00 0.00 69 1015.0
20260502233407 75 100 9.0 0.0 0.00 0.00 0.00 69 1015.0
20260502232406 76 100 9.0 0.0 0.00 0.00 0.00 69 1015.0
20260502231405 77 100 9.0 0.0 0.00 0.00 0.00 69 1014.0
20260502230403 78 110 6.0 0.0 0.00 0.00 0.00 69 1014.0
20260502225402 79 110 6.0 0.0 0.00 0.00 0.00 69 1014.0
20260502224401 80 110 6.0 0.0 0.00 0.00 0.00 69 1014.0
20260502223359 81 110 6.0 0.0 0.00 0.00 0.00 69 1014.0
20260502222358 82 110 6.0 0.0 0.00 0.00 0.00 69 1014.0
20260502221357 75 110 6.0 0.0 0.00 0.00 0.00 65 1014.0
20260502220355 76 90 6.0 0.0 0.00 0.00 0.00 65 1014.0
20260502215353 77 90 6.0 0.0 0.00 0.00 0.00 65 1014.0
20260502214352 78 90 6.0 0.0 0.00 0.00 0.00 65 1014.0
20260502213351 79 90 6.0 0.0 0.00 0.00 0.00 65 1014.0
20260502212349 80 90 6.0 0.0 0.00 0.00 0.00 65 1014.0
20260502211348 81 90 6.0 0.0 0.00 0.00 0.00 65 1014.0
20260502210347 82 140 6.0 0.0 0.00 0.00 0.00 65 1014.0
20260502205345 83 140 6.0 0.0 0.00 0.00 0.00 65 1014.0
20260502204344 76 140 6.0 0.0 0.00 0.00 0.00 62 1014.0
20260502203343 77 140 6.0 0.0 0.00 0.00 0.00 62 1014.0
20260502202341 78 140 6.0 0.0 0.00 0.00 0.00 62 1014.0
20260502201339 79 140 6.0 0.0 0.00 0.00 0.00 62 1014.0
20260502200338 80 90 6.0 0.0 0.00 0.00 0.00 62 1014.0
20260502195337 81 90 6.0 0.0 0.00 0.00 0.00 62 1014.0
20260502194335 82 90 6.0 0.0 0.00 0.00 0.00 62 1014.0
20260502193334 83 90 6.0 0.0 0.00 0.00 0.00 62 1014.0
20260502192333 84 90 6.0 0.0 0.00 0.00 0.00 62 1015.0
20260502191331 85 90 6.0 0.0 0.00 0.00 0.00 62 1015.0
20260502190330 78 120 11.0 0.0 0.00 0.00 0.00 66 1015.0
20260502185328 79 120 11.0 0.0 0.00 0.00 0.00 66 1015.0
20260502184327 80 120 11.0 0.0 0.00 0.00 0.00 66 1015.0
20260502183326 81 120 11.0 0.0 0.00 0.00 0.00 66 1015.0
20260502182325 82 120 11.0 0.0 0.00 0.00 0.00 66 1015.0
20260502181323 83 120 11.0 0.0 0.00 0.00 0.00 66 1015.0
20260502180322 84 120 11.0 0.0 0.00 0.00 0.00 66 1015.0
20260502170313 82 110 14.0 0.0 0.00 0.00 0.00 70 1016.0
20260502164310 78 110 14.0 0.0 0.00 0.00 0.00 70 1016.0
20260502163308 79 110 14.0 0.0 0.00 0.00 0.00 70 1016.0
20260502162307 80 110 14.0 0.0 0.00 0.00 0.00 70 1016.0
20260502161306 81 110 14.0 0.0 0.00 0.00 0.00 70 1016.0
20260502160304 82 100 13.0 0.0 0.00 0.00 0.00 70 1016.0
20260502152258 80 100 13.0 0.0 0.00 0.00 0.00 65 1016.0
20260502151257 81 100 13.0 0.0 0.00 0.00 0.00 65 1016.0
20260502150256 82 100 13.0 0.0 0.00 0.00 0.00 65 1016.0
20260502130239 80 100 6.0 0.0 0.00 0.00 0.00 74 1016.0
20260502123235 74 100 6.0 0.0 0.00 0.00 0.00 83 1016.0
20260502122234 75 100 6.0 0.0 0.00 0.00 0.00 83 1016.0
20260502121233 76 100 6.0 0.0 0.00 0.00 0.00 83 1016.0
20260502120231 77 100 5.0 0.0 0.00 0.00 0.00 83 1016.0
20260502115230 78 100 5.0 0.0 0.00 0.00 0.00 83 1016.0
20260502114229 74 100 5.0 0.0 0.00 0.00 0.00 83 1016.0
20260502113227 75 100 5.0 0.0 0.00 0.00 0.00 83 1015.0
20260502112225 76 100 5.0 0.0 0.00 0.00 0.00 83 1015.0
20260502111224 77 100 5.0 0.0 0.00 0.00 0.00 83 1015.0
20260502110222 78 100 5.0 0.0 0.00 0.00 0.00 83 1015.0
20260502105221 72 90 6.0 0.0 0.00 0.00 0.00 89 1015.0
20260502104220 73 90 6.0 0.0 0.00 0.00 0.00 89 1015.0
20260502103218 74 90 6.0 0.0 0.00 0.00 0.00 89 1015.0
20260502102217 75 90 6.0 0.0 0.00 0.00 0.00 89 1014.0
20260502101216 76 90 6.0 0.0 0.00 0.00 0.00 89 1014.0
20260502100214 77 110 6.0 0.0 0.00 0.00 0.00 89 1014.0
20260502091207 74 120 8.0 0.0 0.00 0.00 0.00 89 1014.0
20260502090204 75 120 8.0 0.0 0.00 0.00 0.00 89 1013.0
20260502071148 72 120 9.0 0.0 0.00 0.00 0.00 83 1013.0
20260502070145 73 120 9.0 0.0 0.00 0.00 0.00 83 1014.0
20260502065143 74 80 8.0 0.0 0.00 0.00 0.00 83 1014.0
20260502064142 75 80 8.0 0.0 0.00 0.00 0.00 83 1014.0